Location: ????????
(60.4333°N, 46.4710°E)
Time: 19:26:47
(UTC+00:00)

Cosmos 2218 Rocket - Pass Details

Date: 25 November 2020
Orbit: 956 x 1006 km, 82.9° (Epoch: 16 January)

Event Time Altitude Azimuth Distance (km) Brightness Sun altitude
Rises 13:42:49 0° 344° (NNW) 3,668 6.9 -11.2°
Reaches altitude 10° 13:45:29 10° 351° (N) 2,712 6.2 -11.5°
Maximum altitude 13:51:23 44° 63° (ENE) 1,309 4.2 -12.2°
Drops below altitude 10° 13:57:13 10° 135° (SE) 2,688 6.1 -12.8°
Sets 13:59:50 0° 142° (SE) 3,632 6.8 -13.1°
